Houston / Southwest Airport, TX

6:24 AM CDT on October 18, 2017 (GMT -0500)
Houston-Southwest

Weather History for KAXH - December, 2012

Change the Weather History Date:

Wednesday, December 12, 2012

  Actual Average (KHOU) Record (KHOU)
Temperature  
Mean Temperature 46 °F -  
Max Temperature 59 °F 62 °F 82 °F (1948)
Min Temperature 32 °F 43 °F 25 °F (1989)
Degree Days  
Heating Degree Days 20    
Moisture  
Dew Point 28 °F    
Average Humidity 59    
Maximum Humidity 96    
Minimum Humidity 22    
Precipitation  
Precipitation 0.00 in - - ()
Sea Level Pressure  
Sea Level Pressure 30.28 in    
Wind  
Wind Speed 2 mph (ENE)    
Max Wind Speed 7 mph    
Max Gust Speed -    
Visibility 10 miles    
Events      
Averages and records for this station are not official NWS values.
T = Trace of Precipitation, MM = Missing Value Source: NWS Daily Summary

Daily Weather History Graph

Daily Weather History Graph

Search for Another Location

Airport or City:

Trip Planner

Search our weather history database for the weather conditions in past years. The results will help you decide how hot, cold, wet, or windy it might be!

Date:

Astronomy

Dec. 12, 2012 Rise Set
Actual Time 7:07 AM CST 5:24 PM CST
Civil Twilight 6:41 AM CST 5:50 PM CST
Nautical Twilight 6:11 AM CST 6:20 PM CST
Astronomical Twilight 5:42 AM CST 6:49 PM CST
Moon 6:14 AM CST (12/12) 5:01 PM CST (12/12)
Length of Visible Light 11h 09m
Length of Day
10h 16m
Waning Crescent, 1% of the Moon is Illuminated
Dec 12
Waning Crescent
Dec 13
New
Dec 19
First Quarter
Dec 28
Full
Jan 4
Last Quarter

Hourly Weather History & Observations

Time (CST) Temp. Windchill Dew Point Humidity Pressure Visibility Wind Dir Wind Speed Gust Speed Precip Events Conditions
12:15 AM 41.0 °F - 31.3 °F 68% 30.24 in 10.0 mi Calm Calm - N/A   Clear
12:35 AM 39.6 °F - 31.6 °F 73% 30.24 in 10.0 mi Calm Calm - N/A   Clear
12:55 AM 38.8 °F - 30.7 °F 73% 30.22 in 10.0 mi Calm Calm - N/A   Clear
1:15 AM 40.6 °F - 31.1 °F 69% 30.23 in 10.0 mi Calm Calm - N/A   Clear
1:35 AM 39.7 °F - 31.3 °F 72% 30.23 in 10.0 mi Calm Calm - N/A   Clear
1:55 AM 38.1 °F - 32.4 °F 80% 30.24 in 10.0 mi Calm Calm - N/A   Clear
2:15 AM 35.6 °F - 31.1 °F 84% 30.24 in 10.0 mi Calm Calm - N/A   Clear
2:35 AM 35.6 °F - 32.4 °F 88% 30.23 in 10.0 mi Calm Calm - N/A   Clear
2:55 AM 36.0 °F - 32.9 °F 89% 30.24 in 10.0 mi Calm Calm - N/A   Clear
3:15 AM 34.9 °F - 32.0 °F 89% 30.24 in 10.0 mi Calm Calm - N/A   Clear
3:35 AM 34.2 °F - 32.0 °F 92% 30.24 in 10.0 mi Calm Calm - N/A   Clear
3:55 AM 35.6 °F - 30.9 °F 83% 30.25 in 10.0 mi Calm Calm - N/A   Clear
4:15 AM 36.0 °F - 30.2 °F 80% 30.25 in 10.0 mi Calm Calm - N/A   Clear
4:35 AM 34.7 °F - 30.2 °F 84% 30.25 in 10.0 mi Calm Calm - N/A   Clear
4:55 AM 35.1 °F - 30.0 °F 82% 30.26 in 10.0 mi Calm Calm - N/A   Clear
5:15 AM 35.6 °F - 29.7 °F 79% 30.27 in 10.0 mi Calm Calm - N/A   Clear
5:35 AM 35.6 °F - 28.8 °F 76% 30.27 in 10.0 mi Calm Calm - N/A   Clear
5:55 AM 35.1 °F - 30.6 °F 84% 30.27 in 10.0 mi Calm Calm - N/A   Clear
6:15 AM 34.2 °F - 29.7 °F 84% 30.27 in 10.0 mi Calm Calm - N/A   Clear
6:35 AM 34.9 °F - 29.1 °F 79% 30.28 in 10.0 mi Calm Calm - N/A   Clear
7:15 AM 35.4 °F - 28.8 °F 77% 30.30 in 10.0 mi Calm Calm - N/A   Clear
7:35 AM 36.1 °F 33.5 °F 29.3 °F 76% 30.30 in 10.0 mi North 3.5 mph - N/A   Clear
7:55 AM 37.2 °F - 30.2 °F 76% 30.31 in 10.0 mi Calm Calm - N/A   Clear
8:15 AM 39.7 °F 36.5 °F 31.8 °F 73% 30.32 in 10.0 mi NNE 4.6 mph - N/A   Clear
8:35 AM 42.3 °F 37.9 °F 32.0 °F 67% 30.33 in 10.0 mi NE 6.9 mph - N/A   Clear
8:55 AM 43.9 °F 40.5 °F 32.4 °F 64% 30.34 in 10.0 mi NE 5.8 mph - N/A   Clear
9:15 AM 45.1 °F 42.0 °F 32.0 °F 60% 30.34 in 10.0 mi NE 5.8 mph - N/A   Clear
9:35 AM 47.3 °F - 32.4 °F 56% 30.35 in 10.0 mi NE 4.6 mph - N/A   Clear
9:55 AM 48.6 °F - 31.1 °F 51% 30.35 in 10.0 mi NNE 5.8 mph - N/A   Clear
10:15 AM 49.8 °F - 29.3 °F 45% 30.35 in 10.0 mi NE 4.6 mph - N/A   Clear
10:35 AM 51.4 °F - 27.5 °F 40% 30.35 in 10.0 mi NE 6.9 mph - N/A   Clear
10:55 AM 52.7 °F - 27.1 °F 37% 30.35 in 10.0 mi NNE 6.9 mph - N/A   Clear
11:15 AM 53.2 °F - 27.3 °F 37% 30.34 in 10.0 mi NE 6.9 mph - N/A   Clear
11:35 AM 54.3 °F - 27.7 °F 36% 30.34 in 10.0 mi ENE 6.9 mph - N/A   Clear
11:55 AM 55.8 °F - 27.3 °F 34% 30.32 in 10.0 mi NE 6.9 mph - N/A   Clear
12:15 PM 56.5 °F - 24.8 °F 30% 30.31 in 10.0 mi NE 6.9 mph - N/A   Clear
12:35 PM 57.7 °F - 23.9 °F 27% 30.30 in 10.0 mi ENE 3.5 mph - N/A   Clear
12:55 PM 57.4 °F - 23.2 °F 27% 30.29 in 10.0 mi ENE 4.6 mph - N/A   Clear
1:15 PM 57.7 °F - 22.6 °F 26% 30.28 in 10.0 mi NE 4.6 mph - N/A   Clear
1:35 PM 58.8 °F - 22.5 °F 25% 30.27 in 10.0 mi NE 5.8 mph - N/A   Clear
1:55 PM 59.0 °F - 21.2 °F 23% 30.27 in 10.0 mi NNE 4.6 mph - N/A   Clear
2:15 PM 59.0 °F - 20.5 °F 23% 30.27 in 10.0 mi Calm Calm - N/A   Clear
2:35 PM 59.2 °F - 20.3 °F 22% 30.26 in 10.0 mi ENE 5.8 mph - N/A   Clear
2:55 PM 59.9 °F - 21.0 °F 22% 30.26 in 10.0 mi East 3.5 mph - N/A   Clear
3:15 PM 59.5 °F - 21.0 °F 23% 30.26 in 10.0 mi East 5.8 mph - N/A   Clear
3:35 PM 59.7 °F - 22.1 °F 24% 30.26 in 3.0 mi East 4.6 mph - N/A   Haze
3:55 PM 59.7 °F - 21.6 °F 23% 30.25 in 10.0 mi East 3.5 mph - N/A   Clear
4:15 PM 59.2 °F - 22.6 °F 25% 30.25 in 10.0 mi Calm Calm - N/A   Clear
4:35 PM 58.3 °F - 22.1 °F 25% 30.25 in 10.0 mi East 3.5 mph - N/A   Clear
4:55 PM 56.8 °F - 24.3 °F 28% 30.25 in 10.0 mi ESE 3.5 mph - N/A   Clear
5:15 PM 54.5 °F - 24.6 °F 31% 30.26 in 10.0 mi ESE 3.5 mph - N/A   Clear
5:35 PM 54.0 °F - 23.9 °F 31% 30.26 in 10.0 mi Calm Calm - N/A   Clear
5:55 PM 52.2 °F - 25.3 °F 35% 30.26 in 10.0 mi ESE 3.5 mph - N/A   Clear
6:15 PM 50.7 °F - 26.2 °F 39% 30.27 in 10.0 mi East 4.6 mph - N/A   Clear
6:35 PM 49.6 °F - 28.2 °F 44% 30.27 in 10.0 mi ESE 4.6 mph - N/A   Clear
6:55 PM 47.1 °F - 28.9 °F 49% 30.28 in 10.0 mi Calm Calm - N/A   Clear
7:15 PM 45.1 °F - 30.2 °F 56% 30.28 in 10.0 mi Calm Calm - N/A   Clear
7:35 PM 45.5 °F - 28.4 °F 51% 30.28 in 10.0 mi Calm Calm - N/A   Clear
7:55 PM 38.8 °F - 29.1 °F 68% 30.29 in 10.0 mi Calm Calm - N/A   Clear
8:15 PM 39.2 °F - 32.0 °F 75% 30.29 in 10.0 mi Calm Calm - N/A   Clear
8:35 PM 39.4 °F - 30.7 °F 71% 30.30 in 10.0 mi Calm Calm - N/A   Clear
8:55 PM 35.8 °F - 30.9 °F 82% 30.31 in 10.0 mi Calm Calm - N/A   Clear
9:35 PM 37.8 °F - 31.3 °F 77% 30.31 in 10.0 mi Calm Calm - N/A   Clear
9:55 PM 35.6 °F - 30.0 °F 80% 30.31 in 10.0 mi Calm Calm - N/A   Clear
10:15 PM 36.3 °F - 31.3 °F 82% 30.31 in 10.0 mi Calm Calm - N/A   Clear
10:35 PM 35.4 °F - 31.6 °F 86% 30.31 in 10.0 mi Calm Calm - N/A   Clear
10:55 PM 36.7 °F - 32.7 °F 86% 30.32 in 10.0 mi Calm Calm - N/A   Clear
11:15 PM 32.2 °F - 30.0 °F 92% 30.32 in 10.0 mi Calm Calm - N/A   Clear
11:35 PM 34.2 °F - 33.1 °F 96% 30.32 in 10.0 mi Calm Calm - N/A   Clear
11:55 PM 35.4 °F - 32.2 °F 88% 30.31 in 10.0 mi Calm Calm - N/A   Clear